Regional Weather Roundup
Issued by NWS

Home | Current Version | Previous Version | Graphics & Text | Print | Product List | Glossary On
Versions: 1 2 3 4 5 6 7 8 9 10 11 12 13 14 15 16 17 18 19 20 21 22 23 24 25 26 27 28 29 30 31 32 33 34 35 36 37 38 39 40 41 42 43 44 45 46 47 48 49 50
000
ASUS43 KIND 181009
RWRIN

WEATHER ROUNDUP FOR INDIANA
NATIONAL WEATHER SERVICE INDIANAPOLIS IN
600 AM EDT WED OCT 18 2017

NOTE: "FAIR" INDICATES FEW OR NO CLOUDS BELOW 12,000 FEET WITH NO
SIGNIFICANT WEATHER AND/OR OBSTRUCTIONS TO VISIBILITY.

* - STATION DOES NOT REPORT WEATHER SUCH AS PRECIPITATION OR FOG.

+ - STATION NOT QUALITY CONTROLLED BY THE NATIONAL WEATHER SERVICE.
    USE DATA WITH CAUTION...ESPECIALLY DEWPOINT AND RELATIVE
    HUMIDITY OBSERVATIONS.

INZ001>003-010>013-019-020-181100-
NORTHWEST INDIANA

CITY           SKY/WX    TMP DP  RH WIND       PRES   REMARKS
GARY /AIRPORT/ CLEAR     54  39  58 S5        30.19R
KNOX *+        CLEAR     43  39  87 S5        30.22R
LA PORTE +     CLEAR     42  39  88 CALM      30.21S
MICHIGAN CITY+ CLEAR     48  39  71 S7        30.21R
RENSSELAER +   CLEAR     41  36  81 S5        30.22R
VALPARAISO     CLEAR     47  40  76 S6        30.21R

$$

LMZ046-743>745-181100-
SOUTHERN LAKE MICHIGAN

STATION/POSITION TIME  TEMP    WIND        PRES    WAVE
                       AIR SEA DIR/SP/G            HT
                 (UTC) (F)     (DEG/KT/KT) (MB)    (FT)
BURNS HARBOR     0940   53     190/ 14/ 19 1022.4S
MICHIGAN CITY    0940   52     160/ 11/ 15   N/A
5NW MICH CITY    1000   53 58  190/ 10/ 14   N/A     1

$$

INZ004-005-014>016-021>024-181100-
NORTH CENTRAL INDIANA

CITY           SKY/WX    TMP DP  RH WIND       PRES   REMARKS
GOSHEN         CLEAR     46  38  73 S8        30.23R
LOGANSPORT +   CLEAR     41  36  81 CALM      30.25R
PERU/GRISSOM   CLEAR     44  39  82 S6        30.24R
SOUTH BEND     CLEAR     46  40  79 S7        30.22R
WARSAW +       CLEAR     46  39  76 CALM      30.24R

$$

INZ006>009-017-018-025>027-181100-
NORTHEAST INDIANA

CITY           SKY/WX    TMP DP  RH WIND       PRES   REMARKS
AUBURN +       CLEAR     45  37  76 SW3       30.25R
FORT WAYNE     CLEAR     43  37  79 S5        30.26R
HUNTINGTON +   CLEAR     45  40  83 CALM      30.25S
KENDALLVILLE + CLEAR     47  40  75 SW9       30.24R

$$

INZ028-029-035-036-043>045-051>053-181100-
WEST CENTRAL INDIANA

CITY           SKY/WX    TMP DP  RH WIND       PRES   REMARKS
GREENCASTLE +  CLEAR     43  37  81 CALM      30.25R
LAFAYETTE      CLEAR     41  39  93 E3        30.24R
TERRE HAUTE    CLEAR     43  39  86 SE3       30.24S

$$

INZ030>032-037>040-046>048-054>057-064-065-181100-
CENTRAL INDIANA

CITY           SKY/WX    TMP DP  RH WIND       PRES   REMARKS
CP ATTERBURY + CLEAR     36  34  93 CALM      30.27R
FISHERS *+     CLEAR     41  41 100 CALM      30.27R
FRANKFORT +    MOCLDY    43  40  89 S5        30.26R
GREENWOOD *+   CLEAR     46  42  87 CALM      30.26S
INDIANAPOLIS   CLEAR     46  41  82 E5        30.26R
-EAGLE CREEK   CLEAR     42  39  89 CALM      30.25R
KOKOMO +       CLEAR     42  39  89 S7        30.26R
MARION +       CLEAR     41  37  87 S3        30.26R
MT COMFORT *+  CLEAR     41  41 100 SE6       30.26S
SHELBYVILLE    CLEAR     43  38  82 SE6       30.26R
ZIONSVILLE +   CLEAR     39  38  98 CALM      30.26S

$$

INZ033-034-041-042-049-050-058-059-181100-
EAST CENTRAL INDIANA

CITY           SKY/WX    TMP DP  RH WIND       PRES   REMARKS
MUNCIE         CLEAR     40  37  89 CALM      30.27R
RICHMOND +     CLEAR     37  36  93 CALM      30.28S

$$

INZ060-061-067>069-081>083-085>088-181100-
SOUTHWEST INDIANA

CITY           SKY/WX    TMP DP  RH WIND       PRES   REMARKS
EVANSVILLE     CLEAR     42  40  92 CALM      30.26R
HUNTINGBURG +  CLEAR     41  40  96 SE5       30.26S
WASHINGTON +   CLEAR     38  37  94 CALM      30.25S

$$

INZ062-063-066-070>080-084-089>092-181100-
SOUTH CENTRAL AND SOUTHEAST INDIANA

CITY           SKY/WX    TMP DP  RH WIND       PRES   REMARKS
BEDFORD +      CLEAR     39  37  93 CALM      30.25S
BLOOMINGTON    CLEAR     40  36  86 CALM      30.25S
MADISON *+     CLEAR     41  41 100 CALM      30.29R
NORTH VERNON + CLEAR     37  37 100 CALM      30.28R
SEYMOUR +      CLEAR     39  37  93 CALM      30.27S

$$




USA.gov is the U.S. government's official web portal to all federal, state and local government web resources and services.